Theta_e
326 325 326 325 322 320 323 323 323 321 312 309 319 325 322 319 319 317 313 315 316 312 312 308 311 309 304 308
325 325 324 321 320 321 322 323 324 320 309 317 322 316 318 317 319 321 319 319 317 314 311 313 309 305 306 301
324 324 321 319 320 320 323 324 322 318 310 319 313 314 316 313 316 319 320 318 316 311 311 305 303 305 299 301
323 322 317 320 317 313 315 318 318 312 312 308 309 310 314 312 312 315 314 313 312 307 307 304 296 299 300 301
322 318 315 318 312 311 310 303 303 303 306 310 311 310 312 311 312 311 306 312 305 302 305 306 306 303 300 299
320 314 315 307 302 304 299 306 305 305 307 307 303 308 311 305 305 302 306 304 301 305 306 305 302 301 299 299
319 315 310 306 309 307 301 304 305 306 306 307 305 305 308 307 304 302 302 300 303 304 302 301 299 300 298 298
316 316 309 311 312 310 300 300 303 306 309 308 303 306 307 306 303 300 301 301 304 301 300 299 300 295 301 300
314 313 311 316 310 309 293 301 302 310 306 302 303 303 306 305 300 300 300 298 300 299 298 298 301 297 301 298
318 315 318 316 307 299 292 297 301 299 299 300 300 301 301 304 304 299 300 299 304 299 299 299 299 300 297 296
312 317 319 310 298 294 301 296 296 298 298 298 299 298 297 297 295 291 293 297 298 300 296 294 298 296 292 286
319 319 315 303 292 297 298 301 298 298 295 297 296 295 294 294 298 295 292 289 287 295 295 292 291 292 292 286
316 318 307 294 295 297 297 295 296 293 294 294 293 294 294 294 296 296 289 288 288 295 293 292 291 291 288 293
316 313 301 295 296 299 298 297 290 294 290 293 293 293 293 296 294 294 295 291 285 293 292 291 292 288 292 284
310 304 294 295 297 300 299 295 293 292 293 292 293 291 291 295 295 294 294 292 288 288 291 289 288 288 285 286
299 301 295 296 295 297 299 297 296 295 292 292 291 291 290 293 294 293 289 292 288 283 286 292 290 288 285 285
294 294 297 295 296 295 295 294 293 294 295 291 287 291 292 295 294 292 290 292 286 280 283 287 287 284 286 286
Wind_Speed
19 21 23 19 17 13 8 6 5 6 6 5 1 1 1 1 1 2 3 4 5 7 4 8 2 9 14 14
20 23 24 20 16 6 4 5 6 8 3 2 3 4 3 3 3 2 3 4 4 8 8 6 12 14 13 12
20 24 26 21 10 4 4 6 7 6 6 4 2 2 4 3 2 3 1 3 6 8 4 10 11 13 11 12
19 22 26 23 4 6 8 5 4 6 3 3 5 6 3 4 4 4 5 7 6 8 8 8 11 16 18 19
18 19 18 2 6 5 12 6 10 6 5 10 8 4 2 4 6 8 11 9 8 12 13 13 15 17 19 22
15 17 9 7 6 5 10 2 3 4 3 3 3 3 4 5 5 10 12 8 15 9 11 10 14 17 19 21
13 7 8 8 5 3 7 3 0 2 2 4 2 4 4 1 7 11 10 13 15 1 6 10 13 15 17 19
5 6 4 6 6 3 6 7 3 3 3 3 3 1 0 3 5 8 7 11 8 8 11 16 15 20 16 18
8 6 8 9 5 5 7 4 4 4 2 5 5 5 1 4 10 12 6 13 10 12 16 17 15 19 13 14
4 7 10 10 5 7 4 4 2 2 5 4 2 4 4 5 6 10 15 20 15 6 14 13 12 15 18 20
7 11 11 7 7 6 5 5 2 3 7 13 10 6 12 12 11 15 17 19 19 15 1 14 15 14 14 13
8 9 9 9 7 1 7 6 3 11 15 11 10 6 8 13 14 11 16 18 22 11 9 5 11 16 17 13
6 5 7 6 6 9 5 9 15 17 12 4 5 9 15 15 12 12 13 17 21 6 3 4 4 13 17 12
5 5 5 8 8 7 9 9 12 9 14 11 13 11 12 10 9 4 7 11 23 14 5 6 10 12 12 9
5 4 5 5 4 6 7 7 11 16 17 18 16 17 14 16 9 9 5 10 11 17 8 11 15 8 10 12
6 2 5 4 2 6 7 10 9 13 14 17 19 17 17 13 5 7 11 15 7 14 21 14 5 8 11 8
3 4 7 5 7 12 12 6 6 11 17 13 8 10 9 5 8 7 5 5 6 9 12 7 5 7 9 8
Wind_Direction
325 321 317 322 319 313 306 308 298 278 251 46 45 74 219 44 272 287 257 247 272 255 357 267 302 275 284 283
324 322 316 323 316 287 282 291 293 266 29 87 332 193 204 182 226 208 286 297 253 277 264 315 260 259 271 269
326 324 317 315 308 266 276 275 253 273 97 137 170 355 296 279 191 200 217 200 224 260 224 249 272 230 267 275
327 324 318 304 204 236 219 228 254 242 140 38 358 321 265 283 257 190 200 230 238 251 225 258 273 312 303 295
332 322 324 355 328 182 20 7 329 299 350 332 269 212 348 253 250 242 262 196 268 258 285 293 295 297 289 286
329 309 343 45 37 334 307 311 282 272 277 327 272 179 285 257 222 265 269 254 257 301 308 296 288 279 279 279
317 302 48 47 331 274 265 130 324 333 22 272 38 77 276 281 268 278 270 263 284 275 282 267 266 264 272 282
291 348 41 348 348 284 275 126 159 123 193 280 197 306 348 291 225 288 303 277 310 283 264 264 268 277 284 287
325 353 341 331 337 238 288 67 108 45 330 301 359 158 320 230 267 283 225 275 280 261 259 271 287 282 307 284
272 3 321 315 264 237 231 103 74 357 283 159 278 324 256 240 310 284 257 266 278 264 270 298 295 292 291 272
338 330 311 281 266 249 146 96 20 341 324 296 299 269 295 274 268 291 276 293 283 232 206 272 260 239 277 280
321 316 296 278 263 325 306 104 323 307 291 315 298 322 284 273 270 259 281 284 296 326 96 275 314 304 288 273
318 288 278 268 304 4 2 342 311 287 283 134 261 296 283 300 296 334 300 311 284 343 235 311 278 294 284 281
300 254 250 263 299 12 341 309 297 279 295 310 309 304 311 319 309 14 339 295 295 297 334 304 242 242 315 271
263 231 240 257 330 346 339 309 306 298 296 298 294 285 280 298 330 336 339 299 273 287 254 260 283 240 248 243
256 194 271 352 30 290 300 293 292 282 296 307 293 288 285 283 20 315 290 292 298 287 285 290 258 271 287 289
255 247 276 262 287 297 289 292 285 308 301 297 308 289 297 26 355 323 304 332 241 289 280 189 183 269 261 227